CW4427 Weather Reports


time (UTC)temp
C
wind
direction
speed
KPH
gust
KPH
rain 1hr
cm
rain 24hr
cm
rain mn
cm
humidity
%
barometer
mb
20260504035355 16 194 1.6 8.0 0.00 0.00 0.00 61 1015.5
20260504034855 16 217 3.2 8.0 0.00 0.00 0.00 62 1015.5
20260504034354 16 179 0.0 3.2 0.00 0.00 0.00 61 1015.5
20260504033854 16 188 0.0 0.0 0.00 0.00 0.00 61 1015.5
20260504033423 16 188 0.0 0.0 0.00 0.00 0.00 60 1015.7
20260504032923 16 188 0.0 4.8 0.00 0.00 0.00 60 1015.7
20260504032423 16 188 0.0 4.8 0.00 0.00 0.00 61 1015.7
20260504031922 16 219 0.0 1.6 0.00 0.00 0.00 60 1015.8
20260504025420 15 219 0.0 0.0 0.00 0.00 0.00 61 1015.9
20260504024419 16 219 0.0 0.0 0.00 0.00 0.00 60 1015.7
20260504023918 16 219 0.0 0.0 0.00 0.00 0.00 60 1015.7
20260504022918 16 219 0.0 0.0 0.00 0.00 0.00 60 1015.6
20260504022417 16 219 0.0 0.0 0.00 0.00 0.00 61 1015.6
20260504021916 16 219 0.0 0.0 0.00 0.00 0.00 60 1015.7
20260504021416 16 219 0.0 0.0 0.00 0.00 0.00 60 1015.7
20260504020414 17 219 0.0 0.0 0.00 0.00 0.00 57 1015.6
20260504015915 17 219 0.0 0.0 0.00 0.00 0.00 58 1015.6
20260504015414 17 219 0.0 0.0 0.00 0.00 0.00 57 1015.4
20260504014913 17 219 0.0 0.0 0.00 0.00 0.00 57 1015.4
20260504014413 17 219 0.0 0.0 0.00 0.00 0.00 59 1015.3
20260504013912 17 219 0.0 0.0 0.00 0.00 0.00 58 1015.3
20260504013412 17 219 0.0 0.0 0.00 0.00 0.00 56 1015.2
20260504012911 18 219 0.0 0.0 0.00 0.00 0.00 55 1015.3
20260504012411 18 219 0.0 0.0 0.00 0.00 0.00 51 1015.2
20260504011911 18 219 0.0 0.0 0.00 0.00 0.00 49 1015.4
20260504011410 18 219 0.0 0.0 0.00 0.00 0.00 48 1015.3
20260504010910 19 219 0.0 1.6 0.00 0.00 0.00 47 1015.2
20260504010409 20 219 0.0 3.2 0.00 0.00 0.00 45 1015.3
20260504005909 20 219 1.6 4.8 0.00 0.00 0.00 45 1015.3
20260504005409 20 197 0.0 4.8 0.00 0.00 0.00 44 1015.3
20260504004908 20 215 0.0 3.2 0.00 0.00 0.00 43 1015.3
20260504004408 20 184 0.0 3.2 0.00 0.00 0.00 43 1015.3
20260504003907 21 184 0.0 3.2 0.00 0.00 0.00 42 1015.3
20260504002906 21 198 1.6 8.0 0.00 0.00 0.00 41 1015.2
20260504002406 21 188 0.0 9.7 0.00 0.00 0.00 41 1015.4
20260504001905 21 242 0.0 9.7 0.00 0.00 0.00 40 1015.3
20260504000404 21 249 3.2 9.7 0.00 0.00 0.00 39 1015.3
20260503235903 22 175 3.2 9.7 0.00 0.00 0.00 39 1015.4
20260503234902 22 246 4.8 8.0 0.00 0.00 0.00 38 1015.3
20260503233901 22 227 4.8 9.7 0.00 0.00 0.00 37 1015.3
20260503233401 22 213 3.2 9.7 0.00 0.00 0.00 38 1015.5
20260503232900 22 231 1.6 11.3 0.00 0.00 0.00 37 1015.5
20260503232400 22 233 1.6 16.1 0.00 0.00 0.00 36 1015.6
20260503231859 22 187 9.7 16.1 0.00 0.00 0.00 36 1015.5
20260503231359 22 275 14.5 14.5 0.00 0.00 0.00 35 1015.5
20260503230858 22 193 1.6 12.9 0.00 0.00 0.00 34 1015.6
20260503230357 22 159 9.7 14.5 0.00 0.00 0.00 36 1015.7
20260503225858 22 166 11.3 14.5 0.00 0.00 0.00 35 1015.6
20260503225357 23 201 3.2 11.3 0.00 0.00 0.00 34 1015.5
20260503224856 23 262 1.6 11.3 0.00 0.00 0.00 33 1015.7
20260503224356 23 291 1.6 16.1 0.00 0.00 0.00 33 1015.8
20260503223856 23 227 3.2 16.1 0.00 0.00 0.00 35 1015.9
20260503223355 23 202 6.4 12.9 0.00 0.00 0.00 34 1016.1
20260503222855 23 154 3.2 11.3 0.00 0.00 0.00 33 1016.0
20260503222355 23 192 3.2 11.3 0.00 0.00 0.00 35 1016.3
20260503221854 23 250 3.2 11.3 0.00 0.00 0.00 33 1016.2
20260503220923 23 190 3.2 16.1 0.00 0.00 0.00 34 1016.4
20260503220423 23 180 6.4 19.3 0.00 0.00 0.00 33 1016.4
20260503215922 23 67 4.8 19.3 0.00 0.00 0.00 32 1016.4
20260503215421 23 228 4.8 12.9 0.00 0.00 0.00 32 1016.5
20260503214421 24 257 4.8 14.5 0.00 0.00 0.00 34 1016.5
20260503213920 23 192 3.2 14.5 0.00 0.00 0.00 33 1016.6
20260503213420 24 194 1.6 11.3 0.00 0.00 0.00 32 1016.7
20260503212920 24 212 8.0 9.7 0.00 0.00 0.00 33 1016.8
20260503212419 24 223 3.2 9.7 0.00 0.00 0.00 32 1016.8
20260503210917 24 233 8.0 14.5 0.00 0.00 0.00 33 1017.1
20260503210417 23 298 4.8 14.5 0.00 0.00 0.00 35 1017.2
20260503205916 23 308 3.2 22.5 0.00 0.00 0.00 31 1017.2
20260503205415 25 190 8.0 22.5 0.00 0.00 0.00 31 1017.4
20260503204915 24 348 0.0 12.9 0.00 0.00 0.00 31 1017.4
20260503204414 25 360 1.6 12.9 0.00 0.00 0.00 33 1017.5
20260503203414 25 223 0.0 12.9 0.00 0.00 0.00 34 1017.6
20260503202913 23 194 11.3 12.9 0.00 0.00 0.00 33 1017.7
20260503202412 23 214 6.4 17.7 0.00 0.00 0.00 35 1017.7
20260503201912 23 210 11.3 19.3 0.00 0.00 0.00 32 1017.8
20260503201412 23 217 3.2 19.3 0.00 0.00 0.00 34 1017.9
20260503200912 23 184 1.6 16.1 0.00 0.00 0.00 35 1018.1
20260503200411 23 181 11.3 16.1 0.00 0.00 0.00 34 1018.1
20260503195910 24 251 6.4 11.3 0.00 0.00 0.00 37 1018.3
20260503195410 23 299 6.4 11.3 0.00 0.00 0.00 33 1018.4
20260503194909 23 206 3.2 20.9 0.00 0.00 0.00 34 1018.5
20260503194409 23 267 1.6 20.9 0.00 0.00 0.00 34 1018.6
20260503193408 23 174 4.8 17.7 0.00 0.00 0.00 35 1018.7
20260503192907 23 233 4.8 17.7 0.00 0.00 0.00 32 1018.7
20260503191906 23 311 9.7 14.5 0.00 0.00 0.00 37 1018.9
20260503191406 23 267 9.7 17.7 0.00 0.00 0.00 35 1018.9
20260503190906 23 193 12.9 17.7 0.00 0.00 0.00 34 1019.0
20260503190405 23 162 9.7 16.1 0.00 0.00 0.00 33 1019.0
20260503185905 23 220 6.4 17.7 0.00 0.00 0.00 34 1019.2
20260503185404 23 210 4.8 17.7 0.00 0.00 0.00 35 1019.2
20260503184904 23 237 1.6 14.5 0.00 0.00 0.00 36 1019.3
20260503184403 22 234 0.0 17.7 0.00 0.00 0.00 38 1019.5
20260503182902 23 188 0.0 22.5 0.00 0.00 0.00 36 1019.8
20260503182401 22 194 4.8 22.5 0.00 0.00 0.00 36 1019.9
20260503181901 23 202 9.7 16.1 0.00 0.00 0.00 35 1019.9
20260503181400 23 179 4.8 16.1 0.00 0.00 0.00 40 1020.1
20260503180900 22 296 1.6 12.9 0.00 0.00 0.00 39 1020.1
20260503180359 22 199 8.0 12.9 0.00 0.00 0.00 37 1020.2
20260503175859 22 197 4.8 11.3 0.00 0.00 0.00 41 1020.2
20260503175359 22 192 4.8 14.5 0.00 0.00 0.00 39 1020.4
20260503174859 22 275 0.0 14.5 0.00 0.00 0.00 37 1020.6
20260503174359 22 275 0.0 14.5 0.00 0.00 0.00 41 1020.7
20260503173858 21 207 8.0 12.9 0.00 0.00 0.00 37 1020.8
20260503173359 22 197 4.8 16.1 0.00 0.00 0.00 41 1020.9
20260503172358 21 326 0.0 16.1 0.00 0.00 0.00 35 1021.0
20260503171859 22 181 12.9 16.1 0.00 0.00 0.00 41 1021.0
20260503171358 22 182 4.8 16.1 0.00 0.00 0.00 41 1021.1
20260503170858 21 298 4.8 19.3 0.00 0.00 0.00 37 1021.3
20260503170359 21 208 11.3 19.3 0.00 0.00 0.00 39 1021.3
20260503150853 18 240 0.0 12.9 0.00 0.00 0.00 48 1022.0
20260503150353 17 93 1.6 12.9 0.00 0.00 0.00 47 1022.0
20260503131351 12 177 0.0 11.3 0.00 0.00 0.00 70 1021.9
20260503130851 12 184 4.8 11.3 0.00 0.00 0.00 70 1022.0
20260503130421 12 181 8.0 11.3 0.00 0.00 0.00 70 1022.1
20260503081352 7 83 0.0 0.0 0.00 0.00 0.00 89 1020.6
20260503080852 7 83 0.0 0.0 0.00 0.00 0.00 89 1020.6
20260503080351 7 83 0.0 0.0 0.00 0.00 0.00 89 1020.6
20260503072919 7 83 0.0 0.0 0.00 0.00 0.00 86 1020.5
20260503072418 7 83 0.0 0.0 0.00 0.00 0.00 86 1020.5
20260503071918 8 83 0.0 0.0 0.00 0.00 0.00 86 1020.6
20260503071417 8 83 0.0 0.0 0.00 0.00 0.00 85 1020.6
20260503070416 8 83 0.0 0.0 0.00 0.00 0.00 85 1020.5
20260503054909 10 83 0.0 0.0 0.00 0.00 0.00 78 1020.5
20260503053907 10 83 0.0 0.0 0.00 0.00 0.00 76 1020.5
20260503053407 10 83 0.0 0.0 0.00 0.00 0.00 76 1020.4
20260503052906 10 83 0.0 0.0 0.00 0.00 0.00 75 1020.4
20260503052406 10 83 0.0 0.0 0.00 0.00 0.00 76 1020.3
20260503051405 10 83 0.0 0.0 0.00 0.00 0.00 76 1020.3
20260503050905 10 83 0.0 0.0 0.00 0.00 0.00 75 1020.3
20260503050404 10 83 0.0 0.0 0.00 0.00 0.00 73 1020.2
20260503045904 11 83 0.0 0.0 0.00 0.00 0.00 73 1020.2
20260503045403 11 83 0.0 0.0 0.00 0.00 0.00 71 1020.2
20260503044902 11 83 0.0 0.0 0.00 0.00 0.00 70 1020.2
20260503043901 11 83 0.0 0.0 0.00 0.00 0.00 69 1020.1
20260503043401 12 83 0.0 0.0 0.00 0.00 0.00 68 1020.1
20260503042900 12 83 0.0 3.2 0.00 0.00 0.00 67 1020.1
20260503042400 12 83 0.0 6.4 0.00 0.00 0.00 67 1019.9
20260503041859 12 36 1.6 6.4 0.00 0.00 0.00 66 1020.0
20260503041359 12 46 1.6 3.2 0.00 0.00 0.00 66 1019.9
20260503040859 12 46 0.0 6.4 0.00 0.00 0.00 66 1019.9
20260503040358 12 28 0.0 6.4 0.00 0.00 0.00 66 1019.9